Location: Endfield
(51.6667°N, 0.0667°W)
Time: 06:48:46
(UTC+00:00)

USA 59 Rocket - Pass Details

Date: 19 May 2024
Orbit: 383 x 1743 km, 63.3° (Epoch: 19 June)

Event Time Altitude Azimuth Distance (km) Brightness Sun altitude
Rises 22:16:46 0° 317° (NW) 2,427 4.6 -15.0°
Reaches altitude 10° 22:18:41 10° 323° (NW) 1,648 3.5 -15.2°
Maximum altitude 22:22:11 49° 40° (NE) 733 0.6 -15.4°
Enters shadow 22:25:48 15° 112° (ESE) 1,783 2.0 -15.6°
